Regional Weather Roundup
Issued by NWS

Home | Current Version | Previous Version | Text Only | Print | Product List | Glossary Off
Versions: 1 2 3 4 5 6 7 8 9 10 11 12 13 14 15 16 17 18 19 20 21 22 23 24 25 26 27 28 29 30 31 32 33 34 35 36 37 38 39 40 41 42 43 44 45 46 47 48 49 50

000
ASUS45 KCYS 171010
RWRWY

WYOMING REGIONAL WEATHER ROUNDUP
NATIONAL WEATHER SERVICE CHEYENNE WY
300 AM MST TUE JAN 17 2017

NOTE:  "FAIR" INDICATES FEW OR NO CLOUDS BELOW 12,000 FEET
WITH NO SIGNIFICANT WEATHER AND/OR OBSTRUCTIONS TO VISIBILITY.

WYZ001-171100-
YELLOWSTONE NATIONAL PARK

CITY           SKY/WX    TMP DP  RH WIND       PRES   REMARKS
LK YELLOWSTONE   N/A     -9 -13  83 CALM      30.16S
W YELLOWSTONE  NOT AVBL

$$
WYZ002>013-054>058-071-098>099-171100-
NORTHERN WYOMING

CITY           SKY/WX    TMP DP  RH WIND       PRES   REMARKS
JACKSON        FAIR     -11 -13  92 N5        30.22S WCI -23
CODY           FAIR       8   3  80 S3        30.00F
GREYBULL       FAIR     -14 -19  79 NW7       30.09F WCI -30
WORLAND        FAIR      -8  -9  95 CALM      30.05F
SHERIDAN       FAIR       5  -1  76 SE5       29.94F WCI  -4
BUFFALO        FAIR      25   2  37 W10       29.94F WCI  15
GILLETTE       FAIR      16   7  67 SE5       29.96F WCI   9
HULETT         FAIR      18   9  68 MISG      29.97S
NEWCASTLE      FAIR      14   7  73 CALM      30.02F

$$
WYZ014>020-022>026-101>103-171100-
CENTRAL WYOMING

CITY           SKY/WX    TMP DP  RH WIND       PRES   REMARKS
BIG PINEY      FAIR     -20 -24  82 N5        30.14F WCI -33
PINEDALE       FAIR     -18 -24  76 W3        30.14S
DUBOIS         NOT AVBL
LANDER         FAIR       2  -1  88 NW3       30.04F
RIVERTON       FAIR      -1  -2  95 CALM      30.06F
CASPER         FAIR      19   5  54 SW21      30.02F WCI   3
DOUGLAS        FAIR       8   3  80 CALM      30.03F

$$
WYZ021-027>030-104>119-171100-
SOUTHERN WYOMING

CITY           SKY/WX    TMP DP  RH WIND       PRES   REMARKS
EVANSTON       FAIR       8   1  73 S3        30.14F
ROCK SPRINGS   FAIR      -9 -15  75 W7        30.15F HAZE    WCI -24
RAWLINS        FAIR       0  -7  72 CALM      30.13S
LARAMIE        FOG       -4  -6  91 W5        30.06S VSB 1/4 WCI -15
CHEYENNE       FAIR      17  10  74 W9        30.03F WCI   6
TORRINGTON     FAIR      15  10  80 CALM      30.05F

$$



USA.gov is the U.S. government's official web portal to all federal, state and local government web resources and services.